Weather History for Klawock, AK

Change the Weather History Date:

Sunday, November 13, 2011

  Actual Average Record
Temperature  
Mean Temperature 36 °F -  
Max Temperature 39 °F 43 °F 52 °F (2003)
Min Temperature 33 °F 34 °F 26 °F (1998)
Degree Days  
Heating Degree Days 29    
Moisture  
Dew Point 30 °F    
Average Humidity 82    
Maximum Humidity 93    
Minimum Humidity 67    
Precipitation  
Precipitation 0.37 in - - ()
Sea Level Pressure  
Sea Level Pressure 29.54 in    
Wind  
Wind Speed 9 mph (West)    
Max Wind Speed 18 mph    
Max Gust Speed 41 mph    
Visibility 6 miles    
Events Rain , Snow    
Averages and records for this station are not official NWS values.
T = Trace of Precipitation, MM = Missing Value Source: NWS Daily Summary

Daily Weather History Graph

Daily Weather History Graph

Search for Another Location

Airport:

Trip Planner

Search our weather history database for the weather conditions in past years. The results will help you decide how hot, cold, wet, or windy it might be!

Date:

Astronomy

Nov. 13, 2011 Rise Set
Actual Time 7:22 AM AKST 3:49 PM AKST
Civil Twilight 6:41 AM AKST 4:31 PM AKST
Nautical Twilight 5:56 AM AKST 5:15 PM AKST
Astronomical Twilight 5:13 AM AKST 5:59 PM AKST
Moon 5:44 PM AKST (11/13) 10:22 AM AKST (11/13)
Length of Visible Light 9h 49m
Length of Day
8h 27m
Waning Gibbous, 92% of the Moon is Illuminated
Nov 13
Waning Gibbous
Nov 18
Last Quarter
Nov 24
New
Dec 2
First Quarter
Dec 10
Full

Hourly Weather History & Observations

Time (AKST) Temp. Windchill Dew Point Humidity Pressure Visibility Wind Dir Wind Speed Gust Speed Precip Events Conditions
12:42 AM 37.4 °F 32.1 °F 35.6 °F 93% 29.35 in 10.0 mi SSW 6.9 mph 23.0 mph 0.04 in   Overcast
12:53 AM 37.9 °F 32.7 °F 36.0 °F 93% 29.35 in 10.0 mi Variable 6.9 mph 17.3 mph 0.04 in   Overcast
1:42 AM 37.4 °F 30.3 °F 33.8 °F 87% 29.37 in 9.0 mi SW 10.4 mph 38.0 mph 0.00 in Rain Light Rain
1:53 AM 37.0 °F 29.8 °F 34.0 °F 89% 29.38 in 9.0 mi WSW 10.4 mph 16.1 mph 0.00 in   Overcast
2:11 AM 37.4 °F 31.4 °F 33.8 °F 87% 29.38 in 10.0 mi West 8.1 mph 31.1 mph 0.01 in   Overcast
3:53 AM 39.9 °F 34.5 °F 32.0 °F 73% 29.39 in 10.0 mi WNW 8.1 mph 24.2 mph 0.01 in   Overcast
4:53 AM 39.0 °F 32.8 °F 32.0 °F 76% 29.41 in 9.0 mi NW 9.2 mph 20.7 mph 0.02 in Rain Light Rain
5:53 AM 37.0 °F 30.4 °F 33.1 °F 86% 29.42 in 10.0 mi West 9.2 mph - 0.07 in Rain Light Rain
6:53 AM 37.0 °F 27.0 °F 34.0 °F 89% 29.43 in 9.0 mi WSW 18.4 mph 34.5 mph 0.00 in Rain Light Rain
7:53 AM 36.0 °F 29.6 °F 32.0 °F 86% 29.42 in 10.0 mi SSW 8.1 mph - 0.00 in   Overcast
8:14 AM 35.6 °F 28.0 °F 33.8 °F 93% 29.46 in 5.0 mi NW 10.4 mph 24.2 mph 0.03 in Snow Light Snow
8:53 AM 35.1 °F 29.3 °F 33.1 °F 92% 29.47 in 3.0 mi Variable 6.9 mph 21.9 mph 0.05 in Snow Light Snow
8:56 AM 35.6 °F 30.7 °F 33.8 °F 93% 29.46 in 3.0 mi Variable 5.8 mph 18.4 mph 0.00 in Snow Light Snow
9:20 AM 35.6 °F 30.7 °F 33.8 °F 93% 29.46 in 10.0 mi Variable 5.8 mph - 0.00 in Rain Light Rain
9:53 AM 37.0 °F 34.5 °F 33.1 °F 86% 29.48 in 9.0 mi Variable 3.5 mph - 0.01 in Rain Light Rain
10:53 AM 37.9 °F 30.0 °F 30.9 °F 76% 29.49 in 9.0 mi West 12.7 mph 18.4 mph 0.01 in Rain Light Rain
11:53 AM 37.9 °F 30.9 °F 30.9 °F 76% 29.51 in 10.0 mi WSW 10.4 mph 20.7 mph 0.00 in   Mostly Cloudy
12:53 PM 37.0 °F 28.5 °F 30.0 °F 76% 29.52 in 9.0 mi West 13.8 mph 24.2 mph 0.03 in Snow Light Snow
1:48 PM 35.6 °F 26.6 °F 30.2 °F 81% 29.54 in 1.8 mi WSW 13.8 mph 35.7 mph 0.01 in Snow Light Snow
1:49 PM 35.6 °F 27.5 °F 30.2 °F 81% 29.54 in 2.0 mi SW 11.5 mph 35.7 mph 0.01 in Snow Light Snow
1:53 PM 34.0 °F 25.0 °F 30.9 °F 89% 29.54 in 3.0 mi WSW 12.7 mph 35.7 mph 0.01 in Snow Light Snow
2:12 PM 33.8 °F 23.2 °F 30.2 °F 87% 29.55 in 1.8 mi West 17.3 mph 32.2 mph 0.01 in Snow Light Snow
2:14 PM 33.8 °F 23.2 °F 30.2 °F 87% 29.55 in 1.2 mi WSW 17.3 mph 32.2 mph 0.02 in Snow Light Snow
2:23 PM 33.8 °F 27.0 °F 30.2 °F 87% 29.55 in 2.0 mi West 8.1 mph 28.8 mph 0.03 in Snow Light Snow
2:39 PM 35.6 °F 28.6 °F 28.4 °F 75% 29.55 in 9.0 mi West 9.2 mph 18.4 mph 0.04 in   Mostly Cloudy
2:51 PM 33.8 °F 26.4 °F 28.4 °F 81% 29.57 in 2.0 mi WNW 9.2 mph 36.8 mph 0.05 in Snow Light Snow
2:53 PM 34.0 °F 25.0 °F 28.9 °F 82% 29.57 in 1.2 mi West 12.7 mph 36.8 mph 0.05 in Snow Light Snow
3:03 PM 33.8 °F 27.7 °F 30.2 °F 87% 29.57 in 2.0 mi Variable 6.9 mph 24.2 mph 0.00 in Snow Light Snow
3:05 PM 33.8 °F 26.4 °F 30.2 °F 87% 29.57 in 3.0 mi West 9.2 mph 23.0 mph 0.00 in Snow Light Snow
3:53 PM 35.1 °F 25.9 °F 27.0 °F 72% 29.56 in 10.0 mi WSW 13.8 mph 34.5 mph 0.01 in   Overcast
4:53 PM 37.0 °F 30.4 °F 27.0 °F 67% 29.57 in 10.0 mi West 9.2 mph 24.2 mph 0.00 in   Mostly Cloudy
5:53 PM 35.1 °F 27.4 °F 28.0 °F 76% 29.57 in 10.0 mi West 10.4 mph 18.4 mph 0.01 in   Mostly Cloudy
6:36 PM 35.6 °F 28.0 °F 28.4 °F 75% 29.60 in 2.5 mi WNW 10.4 mph 24.2 mph 0.00 in Snow Light Snow
6:53 PM 34.0 °F 28.0 °F 28.9 °F 82% 29.60 in 3.0 mi Variable 6.9 mph - 0.00 in Snow Light Snow
7:09 PM 33.8 °F 27.7 °F 26.6 °F 75% 29.60 in 10.0 mi WSW 6.9 mph 17.3 mph 0.00 in   Mostly Cloudy
7:53 PM 34.0 °F 27.2 °F 27.0 °F 75% 29.63 in 2.5 mi WNW 8.1 mph - 0.03 in Snow Light Snow
8:09 PM 33.8 °F 23.9 °F 28.4 °F 81% 29.62 in 9.0 mi West 15.0 mph 26.5 mph 0.00 in   Mostly Cloudy
8:39 PM 33.8 °F 24.8 °F 28.4 °F 81% 29.64 in 2.0 mi WSW 12.7 mph 31.1 mph 0.00 in Snow Light Snow
8:42 PM 33.8 °F 23.5 °F 28.4 °F 81% 29.63 in 1.2 mi West 16.1 mph 31.1 mph 0.00 in Snow Light Snow
8:50 PM 33.8 °F 27.0 °F 28.4 °F 81% 29.62 in 2.5 mi WSW 8.1 mph 25.3 mph 0.00 in Snow Light Snow
8:53 PM 33.1 °F 28.7 °F 28.9 °F 85% 29.62 in 5.0 mi Variable 4.6 mph - 0.00 in Snow Light Snow
9:05 PM 33.8 °F 28.6 °F 28.4 °F 81% 29.62 in 8.0 mi SW 5.8 mph - 0.01 in Snow Light Snow
9:13 PM 33.8 °F 25.3 °F 30.2 °F 87% 29.64 in 1.8 mi WSW 11.5 mph 39.1 mph 0.01 in Snow Light Snow
9:19 PM 33.8 °F 26.4 °F 28.4 °F 81% 29.63 in 2.0 mi WSW 9.2 mph 39.1 mph 0.01 in Snow Light Snow
9:27 PM 33.8 °F 27.7 °F 28.4 °F 81% 29.62 in 9.0 mi Variable 6.9 mph - 0.01 in   Overcast
9:53 PM 36.0 °F 30.3 °F 28.0 °F 73% 29.62 in 9.0 mi Variable 6.9 mph - 0.01 in Snow Light Snow
10:30 PM 33.8 °F 25.3 °F 28.4 °F 81% 29.65 in 2.0 mi WNW 11.5 mph 41.4 mph 0.00 in Snow Light Snow
10:34 PM 35.6 °F 29.9 °F 26.6 °F 70% 29.64 in 3.0 mi NNW 6.9 mph 32.2 mph 0.00 in Snow Light Snow
10:53 PM 34.0 °F - 28.0 °F 79% 29.63 in 10.0 mi Calm Calm - 0.00 in   Overcast
11:53 PM 34.0 °F - 30.0 °F 85% 29.66 in 6.0 mi Calm Calm - 0.01 in Snow Light Snow